Theta_e
314 313 311 310 309 305 299 297 298 313 310 298 297 295 303 306 305 306 304 302 301 299 299 297 298 298 301 305 304 298 296 291 286 291 299 301 296 292 289 283 284 285 283 281
313 313 310 310 309 306 294 293 299 310 307 292 294 300 305 304 305 303 303 302 302 301 297 291 299 301 305 305 302 296 293 287 281 282 292 296 294 294 292 289 286 283 279 282
313 312 310 309 308 306 296 296 297 299 302 299 297 297 301 299 304 303 302 301 301 299 297 297 296 299 305 305 302 308 298 287 284 280 286 292 290 293 293 287 278 282 284 286
312 313 310 309 307 306 299 300 295 297 294 298 297 298 300 300 298 302 301 299 301 297 290 294 295 300 300 302 307 298 295 288 290 292 295 295 293 292 292 288 286 282 287 288
311 313 311 309 307 305 301 292 293 295 296 299 297 296 299 300 301 300 298 297 301 299 294 295 292 296 295 295 298 296 295 287 290 289 296 295 292 293 292 291 291 290 290 289
310 311 311 309 308 302 292 298 297 296 297 297 295 293 297 300 300 301 301 299 298 297 299 299 297 296 296 296 293 291 290 288 284 283 293 291 283 290 292 293 293 292 285 290
310 311 310 309 308 304 293 294 295 294 294 296 296 298 299 299 298 296 301 301 296 301 303 298 294 294 295 295 294 294 290 288 285 279 285 276 288 296 297 293 293 293 293 293
309 310 310 310 309 307 295 292 294 292 290 297 297 298 297 297 297 296 300 303 302 300 296 290 288 289 291 294 296 294 293 288 282 279 276 285 291 294 291 286 289 294 291 292
308 309 310 310 309 307 296 292 298 293 291 294 299 297 298 293 292 295 299 302 300 298 292 289 283 283 291 289 293 297 296 291 284 278 275 275 286 297 299 295 281 294 292 289
307 307 309 309 308 308 298 293 295 293 290 296 297 293 292 297 292 292 298 300 297 296 289 287 285 286 293 287 288 288 287 286 282 282 281 284 294 298 298 282 282 292 291 287
305 306 307 310 307 307 299 293 295 294 288 292 298 300 295 295 294 291 296 294 295 293 287 288 289 287 289 287 292 290 287 283 281 281 278 278 299 296 286 289 290 291 288 288
305 306 308 310 307 306 304 292 298 300 291 290 297 298 299 299 300 295 294 293 292 295 290 291 289 288 288 286 281 292 284 288 283 285 284 292 296 293 295 294 292 289 291 294
304 306 307 310 308 305 302 293 294 296 291 292 293 296 300 300 299 302 294 298 300 299 297 292 289 286 288 282 285 288 293 294 287 287 291 294 295 295 295 293 292 292 291 291
304 306 307 309 307 305 304 293 294 295 292 288 293 304 301 304 301 302 303 302 301 300 295 291 288 286 292 288 290 288 291 293 291 289 292 295 296 294 294 293 292 291 292 291
306 306 307 309 307 306 301 296 296 297 293 288 290 296 301 301 300 301 300 299 297 294 291 289 288 291 291 290 290 289 293 291 287 286 294 291 292 293 294 291 291 293 290 293
306 306 307 309 306 304 294 292 298 298 298 290 287 296 298 300 301 300 297 299 297 295 293 292 293 296 292 286 284 293 296 297 296 293 296 295 294 293 293 291 290 292 294 294
306 307 307 308 305 299 292 293 297 301 297 292 288 289 299 301 298 296 296 297 296 295 292 292 291 292 293 288 282 293 296 297 298 298 296 293 293 292 292 292 292 295 295 295
306 306 307 304 303 301 294 297 302 299 295 293 286 287 292 298 292 292 296 293 294 293 293 292 290 293 291 286 292 296 298 298 298 297 296 294 293 292 291 292 293 293 292 293
305 306 304 299 295 293 295 308 305 297 293 288 288 285 286 296 293 294 293 294 289 293 290 290 291 288 286 291 294 296 298 296 296 295 294 293 291 291 291 289 292 292 292 293
304 298 295 291 295 305 305 298 294 291 287 287 287 290 288 293 291 291 292 292 289 286 290 293 289 287 293 295 298 298 298 298 296 292 289 290 290 290 290 289 294 293 293 294
295 292 292 298 304 299 296 290 289 289 284 285 287 288 288 295 290 289 293 290 290 285 288 289 286 284 292 298 298 298 296 296 295 294 292 292 292 290 291 293 295 295 293 292
296 296 300 300 295 290 287 287 290 288 285 288 287 288 290 290 294 292 292 290 291 286 292 289 283 290 295 298 297 296 295 294 293 293 293 293 293 293 292 292 293 295 293 293
298 294 291 291 289 283 284 283 287 285 290 292 291 291 291 291 292 292 292 289 286 294 288 286 287 293 297 297 296 295 295 294 293 293 293 295 295 296 293 295 297 297 293 293
289 287 282 283 282 284 285 286 288 292 294 294 295 293 292 292 290 290 289 291 291 285 281 284 291 294 297 297 297 295 293 293 293 293 294 295 296 295 296 296 296 295 293 294
287 288 282 284 287 289 291 292 291 295 296 294 293 294 292 289 290 291 289 286 283 285 283 286 293 297 298 296 296 294 293 292 292 292 295 297 297 295 294 295 296 295 295 295
289 290 287 288 285 287 291 292 292 299 298 299 297 294 290 289 289 287 286 286 283 286 290 294 296 295 296 295 296 295 295 293 293 294 296 295 294 292 292 295 296 296 295 294
287 286 289 288 288 289 293 294 295 299 298 293 294 290 288 291 286 286 289 286 290 294 296 298 297 296 294 295 295 296 296 293 293 294 294 293 296 297 296 294 295 295 295 294
Wind_Speed
19 20 22 24 25 28 9 4 3 3 5 4 1 3 5 4 3 4 3 4 5 3 6 4 5 3 2 2 2 3 2 4 2 4 8 2 3 5 5 7 2 2 5 0
18 19 20 22 22 15 4 3 5 5 7 1 3 6 5 3 4 4 4 5 4 3 3 4 6 4 2 4 3 3 1 3 4 11 8 8 6 6 3 4 4 6 7 4
18 17 19 23 25 21 4 2 5 7 6 1 1 4 4 2 4 5 5 3 5 7 7 6 5 3 2 3 4 6 7 3 6 6 4 4 5 8 6 6 5 4 4 5
19 17 19 22 26 29 3 2 3 2 5 6 5 2 3 3 4 4 8 7 7 4 4 4 5 7 4 5 3 3 5 2 2 1 3 4 3 8 10 4 1 6 4 6
18 15 16 20 25 29 4 3 4 5 4 6 6 5 6 4 3 4 3 7 9 10 6 3 2 1 2 1 3 2 3 1 3 4 4 6 2 8 5 7 5 10 10 6
15 16 16 16 20 14 4 4 4 4 5 7 2 2 3 2 3 7 6 6 5 6 1 1 4 3 3 4 5 2 3 4 3 4 5 5 6 7 6 5 7 4 3 1
12 13 14 11 12 8 2 4 1 3 4 3 4 5 4 5 4 6 3 7 5 4 3 4 1 2 4 4 4 4 5 4 3 3 5 2 6 6 9 13 7 6 4 1
12 12 12 10 9 10 1 3 2 1 2 3 6 10 4 5 5 4 4 3 3 1 3 4 4 6 3 4 5 5 4 5 3 4 2 3 2 6 3 4 0 2 2 3
11 11 11 8 9 10 1 3 2 2 3 3 7 3 4 2 3 4 3 2 1 6 3 3 2 3 5 2 2 6 8 7 6 3 4 5 4 3 5 2 3 2 4 1
11 12 12 9 8 9 2 4 1 3 1 5 4 3 1 2 3 3 1 1 3 5 3 2 2 3 2 3 6 4 3 2 6 4 3 7 5 3 3 4 6 3 3 2
11 12 11 8 7 8 4 6 3 4 1 7 2 4 3 4 3 4 4 5 5 4 4 2 2 2 2 3 0 5 7 6 4 3 2 6 5 3 6 5 3 4 1 1
11 11 12 6 6 6 5 2 3 1 4 7 3 5 6 3 6 6 2 6 4 4 4 1 2 1 2 3 2 4 1 7 6 8 7 4 2 4 4 4 4 3 2 5
10 10 11 7 5 5 3 2 4 3 2 6 3 5 3 4 3 4 5 2 2 2 4 4 2 1 4 2 4 0 4 3 4 5 2 5 4 4 4 4 5 2 2 3
9 9 10 7 6 4 4 1 2 2 1 1 6 2 3 4 5 4 4 6 4 4 4 2 3 2 3 4 4 4 5 3 4 3 4 5 2 3 6 6 6 3 3 2
10 9 8 6 5 5 4 3 4 2 4 3 5 8 4 5 6 7 6 6 3 3 2 2 3 3 3 2 3 1 2 5 4 5 6 5 4 6 5 5 2 1 1 1
10 9 8 5 4 2 2 4 2 1 3 2 3 4 3 3 5 6 5 4 2 3 4 4 3 4 5 3 2 3 3 4 7 6 3 3 10 7 4 5 2 1 1 1
7 7 8 6 4 1 3 4 3 5 2 3 4 5 3 6 4 2 2 2 2 3 1 2 2 3 5 4 4 5 6 5 6 7 10 5 4 5 6 5 3 1 0 2
6 7 4 6 2 4 5 4 11 3 2 2 2 5 2 5 2 1 2 1 2 2 3 2 2 2 3 2 4 6 7 7 6 6 6 6 9 7 5 3 1 3 2 1
6 2 11 3 1 1 3 8 7 2 3 2 2 4 5 3 3 2 1 3 1 2 3 3 4 1 4 7 8 8 8 7 9 6 7 9 9 7 5 4 4 3 2 1
14 3 2 2 3 9 4 6 4 3 2 0 3 2 3 5 2 2 3 1 4 1 6 2 3 5 6 6 8 8 9 11 11 8 5 8 6 6 6 4 3 3 2 2
1 2 2 0 3 2 2 3 4 3 3 4 5 6 4 2 5 4 3 4 2 2 6 6 2 4 3 8 10 8 9 9 7 7 6 7 8 7 5 5 3 1 4 4
4 3 2 1 2 2 4 5 4 6 7 5 6 6 6 3 4 4 2 3 1 5 3 4 3 5 6 12 13 9 10 9 8 7 8 7 6 6 5 4 3 3 4 6
2 1 3 3 3 5 7 8 5 5 4 5 5 4 5 2 2 3 4 4 6 2 2 5 5 5 8 11 11 10 7 8 8 6 5 7 6 7 6 5 4 5 6 6
2 4 5 5 5 6 6 5 5 6 2 6 8 4 5 3 3 4 5 5 4 3 3 6 4 7 11 10 10 11 8 8 8 6 5 5 6 7 6 5 3 6 7 7
3 3 5 8 5 4 4 6 4 4 1 3 3 3 4 2 4 3 3 4 5 6 6 5 5 10 12 11 9 9 8 6 6 4 4 3 4 3 2 3 3 7 7 7
2 5 5 4 1 4 3 3 2 3 2 2 1 5 3 3 4 4 7 6 6 5 4 5 8 8 9 9 8 7 6 7 6 5 5 5 3 2 5 4 7 8 8 8
4 5 5 5 4 4 1 1 2 4 4 3 4 7 8 3 3 4 5 6 4 6 6 7 10 12 11 8 8 7 7 6 5 5 5 4 3 3 5 8 4 6 6 6
Wind_Direction
338 340 342 345 350 343 31 359 341 294 28 58 91 185 215 274 177 23 50 93 64 78 28 61 61 94 103 357 25 63 343 134 302 285 290 239 105 64 92 111 251 116 140 129
336 338 340 343 347 9 326 336 274 321 97 121 289 283 271 110 65 36 60 39 70 39 61 59 125 132 139 59 79 122 352 26 21 349 350 3 22 21 102 108 74 190 135 208
336 340 342 343 340 342 145 5 354 326 29 132 288 335 337 92 47 49 79 69 50 48 37 33 44 117 88 70 78 90 83 90 144 177 207 272 334 329 328 129 111 211 212 129
342 340 346 346 344 342 136 39 287 164 307 320 338 323 335 93 64 44 23 33 20 130 68 30 36 33 91 27 142 62 94 113 33 236 324 1 343 358 330 41 128 130 138 100
339 338 351 350 350 341 51 54 25 343 294 294 335 358 16 64 36 64 40 85 62 63 89 95 89 117 50 186 48 73 16 218 58 326 11 18 340 346 356 93 77 101 117 103
329 335 347 355 1 4 20 314 337 106 284 322 358 280 118 111 108 20 88 116 102 64 66 250 245 233 204 180 145 139 107 114 78 268 337 2 2 337 72 89 27 104 103 71
326 330 340 353 4 40 181 260 30 49 294 331 304 353 90 88 92 127 46 71 88 221 299 307 307 224 250 235 221 147 133 96 94 239 21 99 231 38 98 108 94 95 114 83
325 329 332 344 355 355 145 280 46 65 282 297 331 5 30 45 27 78 86 59 175 174 32 48 22 353 7 249 227 176 130 109 78 122 177 266 229 13 5 112 153 152 94 18
321 329 327 335 346 350 353 266 159 114 126 276 302 336 357 75 14 37 70 37 216 70 79 72 131 213 216 151 58 51 79 78 112 68 122 232 217 323 323 87 288 70 110 23
321 322 318 318 335 347 349 277 194 89 252 267 358 45 232 14 69 99 84 166 5 65 64 78 163 256 293 153 145 167 83 34 153 139 204 285 213 200 305 72 241 143 137 159
317 317 306 302 322 341 29 270 246 125 273 283 320 354 36 3 69 130 258 44 350 38 64 115 278 68 346 59 208 174 166 147 194 110 147 287 173 38 134 202 104 136 92 355
310 312 308 298 302 334 14 294 319 100 148 243 291 254 228 216 187 147 1 174 171 182 89 40 109 359 32 144 236 356 341 175 183 161 213 226 26 144 111 123 126 146 310 310
305 305 303 288 286 321 4 264 291 13 26 311 359 247 229 121 135 153 124 326 179 53 165 160 179 253 124 155 246 55 331 166 129 72 67 132 123 77 103 104 133 146 315 314
300 299 295 283 275 293 324 277 255 114 256 148 283 328 85 141 124 103 135 140 47 104 78 113 128 164 158 208 203 148 210 74 127 79 48 94 80 137 146 114 81 32 329 304
292 289 295 274 257 290 296 227 241 171 123 224 279 311 243 135 136 136 104 92 85 73 52 90 222 227 96 317 62 227 160 168 136 217 188 175 178 149 122 116 98 334 296 334
289 286 285 244 229 333 355 344 14 93 173 93 311 280 172 158 136 133 129 143 124 115 146 218 257 254 109 120 206 260 190 164 158 182 150 98 126 137 136 127 154 218 309 298
281 302 305 196 184 128 196 208 239 339 349 99 309 308 243 142 104 35 78 71 163 132 218 236 201 295 93 117 178 215 208 130 105 121 113 90 161 161 154 140 178 334 256 118
268 310 199 129 90 284 303 253 230 147 87 95 216 266 73 146 152 186 165 144 40 313 209 336 177 352 77 225 233 154 127 119 103 100 78 114 121 128 144 159 145 91 102 116
231 222 124 84 78 223 288 41 119 93 137 205 196 175 224 152 169 157 29 119 122 268 183 237 103 233 215 213 182 177 161 174 152 125 119 124 131 142 150 151 136 120 151 175
132 101 147 189 217 295 349 22 28 326 289 160 224 230 238 117 133 210 114 143 202 169 241 100 134 243 234 210 187 154 136 134 138 131 128 124 141 152 169 181 173 181 203 159
95 133 188 110 271 50 44 153 189 215 241 207 222 186 189 252 132 187 189 184 187 169 259 134 255 280 247 128 112 116 112 119 121 122 126 132 150 161 155 161 157 210 189 141
157 128 124 115 172 128 184 190 204 204 214 203 172 208 178 264 125 109 213 156 125 241 164 111 253 255 136 125 128 125 123 117 125 136 134 146 157 159 158 181 204 207 163 157
79 102 171 196 155 197 207 194 196 214 207 185 160 144 152 323 56 95 126 180 219 92 109 213 222 148 137 131 124 120 121 121 123 136 149 164 185 172 185 211 222 164 142 143
151 172 179 211 187 226 202 209 203 233 250 156 149 152 144 179 122 158 134 225 110 191 213 225 198 161 146 138 136 130 137 141 153 169 187 214 214 193 211 215 215 156 152 165
181 213 217 219 233 253 230 251 306 297 109 88 110 83 106 153 141 171 139 156 212 202 221 212 166 151 143 140 140 139 144 153 153 172 172 117 110 124 174 234 186 147 142 151
243 232 242 254 219 263 250 266 235 344 63 36 29 81 297 167 161 152 198 169 205 229 192 154 135 132 134 137 140 145 146 150 164 145 117 109 103 210 220 235 156 147 141 152
235 244 225 250 245 246 166 117 15 315 84 124 204 170 199 145 166 205 181 189 200 151 126 132 137 134 135 133 129 143 141 149 145 125 121 120 141 80 109 112 99 117 134 149